| time (UTC) | temp C | wind direction | speed KPH | gust KPH | rain 1hr cm | rain 24hr cm | rain mn cm | humidity % | barometer mb |
| 20260508085207 | 3 | 185 | 0.0 | 0.0 | 0.00 | 0.18 | 0.18 | 99 | 1009.0 |
| 20260508084703 | 3 | 185 | 0.0 | 1.6 | 0.00 | 0.18 | 0.18 | 99 | 1009.0 |
| 20260508084201 | 3 | 185 | 0.0 | 1.6 | 0.00 | 0.18 | 0.18 | 99 | 1008.9 |
| 20260508083658 | 2 | 185 | 0.0 | 0.0 | 0.00 | 0.18 | 0.18 | 99 | 1008.8 |
| 20260508083155 | 2 | 185 | 0.0 | 0.0 | 0.00 | 0.18 | 0.18 | 99 | 1008.6 |
| 20260508082650 | 2 | 185 | 0.0 | 0.0 | 0.00 | 0.18 | 0.18 | 99 | 1008.7 |
| 20260508082148 | 2 | 185 | 0.0 | 0.0 | 0.00 | 0.18 | 0.18 | 99 | 1008.7 |
| 20260508081645 | 2 | 185 | 1.6 | 1.6 | 0.00 | 0.18 | 0.18 | 99 | 1008.5 |
| 20260508081141 | 3 | 185 | 0.0 | 1.6 | 0.00 | 0.18 | 0.18 | 99 | 1008.6 |
| 20260508080638 | 3 | 185 | 0.0 | 0.0 | 0.00 | 0.18 | 0.18 | 99 | 1008.5 |
| 20260508080136 | 3 | 185 | 0.0 | 0.0 | 0.00 | 0.18 | 0.18 | 99 | 1008.7 |
| 20260508075627 | 3 | 186 | 0.0 | 0.0 | 0.00 | 0.18 | 0.18 | 99 | 1008.5 |
| 20260508075124 | 3 | 186 | 0.0 | 0.0 | 0.00 | 0.18 | 0.18 | 99 | 1008.6 |
| 20260508074622 | 3 | 185 | 0.0 | 0.0 | 0.00 | 0.18 | 0.18 | 99 | 1008.6 |
| 20260508074119 | 3 | 185 | 0.0 | 0.0 | 0.00 | 0.18 | 0.18 | 99 | 1008.4 |
| 20260508073616 | 3 | 185 | 0.0 | 0.0 | 0.00 | 0.18 | 0.18 | 99 | 1008.4 |
| 20260508073114 | 3 | 186 | 0.0 | 0.0 | 0.00 | 0.18 | 0.18 | 99 | 1008.5 |
| 20260508072609 | 3 | 185 | 0.0 | 0.0 | 0.00 | 0.18 | 0.18 | 99 | 1008.3 |
| 20260508072106 | 4 | 186 | 0.0 | 0.0 | 0.00 | 0.18 | 0.18 | 99 | 1008.4 |
| 20260508071604 | 4 | 186 | 0.0 | 0.0 | 0.00 | 0.18 | 0.18 | 99 | 1008.6 |
| 20260508071103 | 5 | 186 | 0.0 | 0.0 | 0.00 | 0.18 | 0.18 | 99 | 1008.5 |
| 20260508070559 | 5 | 186 | 0.0 | 0.0 | 0.00 | 0.18 | 0.18 | 99 | 1008.4 |
| 20260508070058 | 5 | 186 | 0.0 | 1.6 | 0.00 | 0.18 | 0.18 | 99 | 1008.7 |
| 20260508065555 | 5 | 186 | 1.6 | 1.6 | 0.00 | 0.18 | 0.18 | 99 | 1008.2 |
| 20260508065053 | 5 | 186 | 1.6 | 1.6 | 0.00 | 0.18 | 0.18 | 99 | 1008.3 |
| 20260508064550 | 5 | 185 | 0.0 | 0.0 | 0.00 | 0.18 | 0.18 | 99 | 1008.3 |
| 20260508064048 | 5 | 185 | 1.6 | 1.6 | 0.00 | 0.18 | 0.18 | 99 | 1008.6 |
| 20260508063545 | 5 | 185 | 1.6 | 1.6 | 0.00 | 0.18 | 0.18 | 99 | 1008.4 |
| 20260508063043 | 5 | 177 | 1.6 | 1.6 | 0.00 | 0.18 | 0.18 | 99 | 1008.4 |
| 20260508062540 | 5 | 177 | 0.0 | 0.0 | 0.00 | 0.18 | 0.18 | 99 | 1008.6 |
| 20260508062037 | 5 | 177 | 0.0 | 0.0 | 0.00 | 0.18 | 0.18 | 99 | 1008.9 |
| 20260508061535 | 5 | 178 | 1.6 | 1.6 | 0.18 | 0.18 | 0.18 | 99 | 1008.9 |
| 20260508061031 | 5 | 170 | 1.6 | 1.6 | 0.18 | 0.18 | 0.18 | 99 | 1009.0 |
| 20260508060528 | 5 | 171 | 1.6 | 1.6 | 0.00 | 0.15 | 0.15 | 99 | 1008.9 |
| 20260508060026 | 5 | 170 | 0.0 | 0.0 | 0.00 | 0.15 | 0.15 | 98 | 1009.0 |
| 20260508055521 | 5 | 170 | 0.0 | 1.6 | 0.00 | 0.15 | 0.15 | 98 | 1008.8 |
| 20260508055018 | 5 | 170 | 0.0 | 1.6 | 0.00 | 0.15 | 0.15 | 98 | 1008.8 |
| 20260508054515 | 5 | 170 | 0.0 | 0.0 | 0.00 | 0.15 | 0.15 | 97 | 1008.6 |
| 20260508054012 | 5 | 170 | 0.0 | 0.0 | 0.00 | 0.15 | 0.15 | 97 | 1009.0 |
| 20260508053509 | 5 | 170 | 0.0 | 0.0 | 0.00 | 0.15 | 0.15 | 96 | 1008.9 |
| 20260508053007 | 5 | 170 | 0.0 | 0.0 | 0.00 | 0.15 | 0.15 | 96 | 1009.1 |
| 20260508052504 | 5 | 170 | 0.0 | 0.0 | 0.00 | 0.15 | 0.15 | 95 | 1009.1 |
| 20260508052000 | 5 | 170 | 0.0 | 0.0 | 0.00 | 0.15 | 0.15 | 95 | 1009.2 |
| 20260508051456 | 5 | 170 | 0.0 | 0.0 | 0.30 | 0.15 | 0.15 | 94 | 1009.3 |
| 20260508050952 | 5 | 172 | 3.2 | 3.2 | 0.61 | 0.15 | 0.15 | 93 | 1009.4 |
| 20260508050449 | 5 | 169 | 1.6 | 1.6 | 0.43 | 0.10 | 0.10 | 93 | 1009.5 |
| 20260508045945 | 6 | 167 | 1.6 | 1.6 | 0.48 | 0.08 | 0.08 | 91 | 1009.0 |
| 20260508045442 | 6 | 168 | 1.6 | 4.8 | 0.18 | 0.03 | 0.03 | 88 | 1009.4 |
| 20260508044940 | 6 | 231 | 3.2 | 4.8 | 0.00 | 0.00 | 0.00 | 85 | 1009.1 |
| 20260508044437 | 7 | 284 | 4.8 | 6.4 | 0.00 | 0.00 | 0.00 | 83 | 1008.8 |
| 20260508043932 | 7 | 201 | 1.6 | 1.6 | 0.00 | 0.00 | 0.00 | 78 | 1008.2 |
| 20260508043430 | 6 | 200 | 0.0 | 1.6 | 0.00 | 0.00 | 0.00 | 77 | 1007.8 |
| 20260508042926 | 7 | 200 | 0.0 | 0.0 | 0.00 | 0.00 | 0.00 | 78 | 1007.6 |
| 20260508042424 | 7 | 200 | 0.0 | 1.6 | 0.00 | 0.00 | 0.00 | 78 | 1007.4 |
| 20260508041920 | 7 | 200 | 1.6 | 1.6 | 0.00 | 0.00 | 0.00 | 79 | 1007.3 |
| 20260508041417 | 7 | 200 | 0.0 | 1.6 | 0.00 | 0.00 | 0.00 | 79 | 1007.3 |
| 20260508040913 | 7 | 200 | 0.0 | 1.6 | 0.00 | 0.00 | 0.00 | 79 | 1006.8 |
| 20260508040410 | 7 | 200 | 0.0 | 0.0 | 0.00 | 0.00 | 0.00 | 80 | 1006.8 |
| 20260508035908 | 7 | 200 | 0.0 | 0.0 | 0.00 | 0.03 | 0.03 | 78 | 1006.9 |
| 20260508035400 | 7 | 201 | 0.0 | 0.0 | 0.00 | 0.03 | 0.03 | 78 | 1007.0 |
| 20260508034856 | 7 | 201 | 1.6 | 1.6 | 0.00 | 0.03 | 0.03 | 80 | 1007.2 |
| 20260508034353 | 7 | 201 | 0.0 | 1.6 | 0.00 | 0.03 | 0.03 | 78 | 1006.9 |
| 20260508033850 | 7 | 201 | 1.6 | 1.6 | 0.00 | 0.03 | 0.03 | 77 | 1006.9 |
| 20260508033349 | 7 | 201 | 1.6 | 1.6 | 0.00 | 0.03 | 0.03 | 72 | 1006.9 |
| 20260508032846 | 8 | 201 | 1.6 | 1.6 | 0.00 | 0.03 | 0.03 | 71 | 1006.9 |
| 20260508032343 | 8 | 89 | 1.6 | 3.2 | 0.00 | 0.03 | 0.03 | 65 | 1006.9 |
| 20260508031840 | 8 | 88 | 0.0 | 0.0 | 0.00 | 0.03 | 0.03 | 65 | 1006.8 |
| 20260508031337 | 7 | 124 | 0.0 | 0.0 | 0.00 | 0.03 | 0.03 | 66 | 1006.8 |
| 20260508030833 | 7 | 124 | 0.0 | 0.0 | 0.00 | 0.03 | 0.03 | 69 | 1006.9 |
| 20260508030330 | 7 | 124 | 0.0 | 0.0 | 0.00 | 0.03 | 0.03 | 71 | 1007.0 |
| 20260508025827 | 8 | 124 | 1.6 | 1.6 | 0.00 | 0.03 | 0.03 | 69 | 1007.0 |
| 20260508025324 | 8 | 124 | 0.0 | 0.0 | 0.00 | 0.03 | 0.03 | 65 | 1007.0 |
| 20260508024821 | 8 | 127 | 0.0 | 1.6 | 0.00 | 0.03 | 0.03 | 64 | 1007.3 |
| 20260508024317 | 8 | 127 | 0.0 | 0.0 | 0.00 | 0.03 | 0.03 | 64 | 1007.2 |
| 20260508023814 | 8 | 54 | 0.0 | 0.0 | 0.00 | 0.03 | 0.03 | 62 | 1007.2 |
| 20260508023311 | 8 | 162 | 0.0 | 0.0 | 0.00 | 0.03 | 0.03 | 64 | 1007.2 |
| 20260508022807 | 8 | 162 | 0.0 | 0.0 | 0.00 | 0.03 | 0.03 | 62 | 1007.0 |
| 20260508022306 | 8 | 162 | 0.0 | 0.0 | 0.00 | 0.03 | 0.03 | 62 | 1007.2 |
| 20260508021801 | 8 | 162 | 0.0 | 0.0 | 0.00 | 0.03 | 0.03 | 63 | 1006.9 |
| 20260508021256 | 8 | 162 | 0.0 | 0.0 | 0.00 | 0.03 | 0.03 | 64 | 1007.2 |
| 20260508020753 | 8 | 162 | 1.6 | 1.6 | 0.00 | 0.03 | 0.03 | 61 | 1007.4 |
| 20260508020251 | 7 | 162 | 0.0 | 1.6 | 0.00 | 0.03 | 0.03 | 63 | 1007.0 |
| 20260508015747 | 7 | 163 | 0.0 | 0.0 | 0.00 | 0.03 | 0.03 | 64 | 1007.2 |
| 20260508015245 | 8 | 163 | 0.0 | 0.0 | 0.00 | 0.03 | 0.03 | 63 | 1007.3 |
| 20260508014741 | 8 | 162 | 0.0 | 0.0 | 0.00 | 0.03 | 0.03 | 63 | 1007.0 |
| 20260508014238 | 8 | 162 | 0.0 | 0.0 | 0.00 | 0.03 | 0.03 | 61 | 1007.2 |
| 20260508013734 | 8 | 162 | 0.0 | 0.0 | 0.00 | 0.03 | 0.03 | 61 | 1006.9 |
| 20260508013231 | 8 | 162 | 0.0 | 0.0 | 0.00 | 0.03 | 0.03 | 62 | 1007.2 |
| 20260508012728 | 8 | 162 | 0.0 | 0.0 | 0.00 | 0.03 | 0.03 | 62 | 1007.3 |
| 20260508012225 | 8 | 162 | 0.0 | 0.0 | 0.00 | 0.03 | 0.03 | 62 | 1007.2 |
| 20260508011723 | 8 | 162 | 0.0 | 0.0 | 0.00 | 0.03 | 0.03 | 62 | 1007.2 |
| 20260508011220 | 8 | 162 | 0.0 | 0.0 | 0.00 | 0.03 | 0.03 | 60 | 1007.0 |
| 20260508010717 | 8 | 162 | 0.0 | 0.0 | 0.00 | 0.03 | 0.03 | 61 | 1006.9 |
| 20260508010215 | 8 | 162 | 0.0 | 0.0 | 0.00 | 0.03 | 0.03 | 59 | 1006.9 |
| 20260508005712 | 8 | 162 | 0.0 | 0.0 | 0.00 | 0.03 | 0.03 | 59 | 1006.9 |
| 20260508005208 | 8 | 162 | 0.0 | 1.6 | 0.00 | 0.03 | 0.03 | 60 | 1006.8 |
| 20260508004704 | 8 | 162 | 0.0 | 1.6 | 0.00 | 0.03 | 0.03 | 58 | 1006.5 |
| 20260508004200 | 8 | 162 | 0.0 | 1.6 | 0.00 | 0.03 | 0.03 | 59 | 1006.4 |
| 20260508003657 | 8 | 162 | 0.0 | 0.0 | 0.00 | 0.03 | 0.03 | 58 | 1006.4 |
| 20260508003155 | 8 | 162 | 1.6 | 1.6 | 0.00 | 0.03 | 0.03 | 60 | 1006.5 |
| 20260508002651 | 8 | 162 | 1.6 | 1.6 | 0.00 | 0.03 | 0.03 | 59 | 1006.4 |
| 20260508002149 | 9 | 162 | 0.0 | 1.6 | 0.00 | 0.03 | 0.03 | 56 | 1006.2 |
| 20260508001644 | 9 | 162 | 0.0 | 0.0 | 0.00 | 0.03 | 0.03 | 56 | 1006.4 |
| 20260508001140 | 9 | 162 | 0.0 | 0.0 | 0.00 | 0.03 | 0.03 | 56 | 1006.3 |
| 20260508000636 | 9 | 162 | 0.0 | 0.0 | 0.00 | 0.03 | 0.03 | 55 | 1006.4 |
| 20260508000134 | 9 | 162 | 0.0 | 0.0 | 0.00 | 0.03 | 0.03 | 57 | 1006.3 |
| 20260507235630 | 10 | 162 | 0.0 | 0.0 | 0.00 | 0.03 | 0.03 | 57 | 1006.1 |
| 20260507235128 | 10 | 162 | 0.0 | 0.0 | 0.00 | 0.03 | 0.03 | 53 | 1006.0 |
| 20260507234624 | 10 | 162 | 1.6 | 1.6 | 0.00 | 0.03 | 0.03 | 53 | 1006.1 |
| 20260507234121 | 10 | 162 | 0.0 | 0.0 | 0.00 | 0.03 | 0.03 | 53 | 1006.1 |
| 20260507233618 | 11 | 162 | 0.0 | 0.0 | 0.00 | 0.03 | 0.03 | 52 | 1005.8 |
| 20260507233116 | 11 | 189 | 0.0 | 1.6 | 0.00 | 0.03 | 0.03 | 52 | 1006.0 |
| 20260507232613 | 11 | 189 | 0.0 | 0.0 | 0.00 | 0.03 | 0.03 | 51 | 1006.2 |
| 20260507232110 | 11 | 189 | 0.0 | 1.6 | 0.00 | 0.03 | 0.03 | 49 | 1006.0 |
| 20260507231606 | 11 | 188 | 0.0 | 1.6 | 0.00 | 0.03 | 0.03 | 48 | 1006.0 |
| 20260507231103 | 11 | 202 | 0.0 | 0.0 | 0.00 | 0.03 | 0.03 | 49 | 1006.0 |
| 20260507230559 | 11 | 203 | 0.0 | 0.0 | 0.00 | 0.03 | 0.03 | 49 | 1006.0 |
| 20260507230056 | 11 | 203 | 1.6 | 1.6 | 0.00 | 0.03 | 0.03 | 55 | 1006.0 |
| 20260507225551 | 11 | 169 | 0.0 | 1.6 | 0.00 | 0.03 | 0.03 | 48 | 1006.0 |
| 20260507225048 | 11 | 173 | 0.0 | 1.6 | 0.00 | 0.03 | 0.03 | 49 | 1005.9 |
| 20260507224543 | 11 | 194 | 1.6 | 1.6 | 0.00 | 0.03 | 0.03 | 48 | 1006.0 |
| 20260507224040 | 12 | 73 | 0.0 | 0.0 | 0.00 | 0.03 | 0.03 | 46 | 1005.9 |
| 20260507223536 | 12 | 175 | 0.0 | 0.0 | 0.00 | 0.03 | 0.03 | 49 | 1005.8 |
| 20260507223034 | 12 | 92 | 1.6 | 3.2 | 0.00 | 0.03 | 0.03 | 48 | 1005.6 |
| 20260507222531 | 12 | 87 | 1.6 | 1.6 | 0.00 | 0.03 | 0.03 | 46 | 1005.6 |
| 20260507222027 | 12 | 104 | 1.6 | 1.6 | 0.00 | 0.03 | 0.03 | 49 | 1005.9 |
| 20260507221523 | 12 | 62 | 1.6 | 3.2 | 0.00 | 0.03 | 0.03 | 47 | 1005.9 |
| 20260507221021 | 12 | 114 | 1.6 | 1.6 | 0.00 | 0.03 | 0.03 | 46 | 1005.8 |
| 20260507220518 | 12 | 66 | 4.8 | 4.8 | 0.00 | 0.03 | 0.03 | 45 | 1005.7 |
| 20260507220015 | 12 | 183 | 1.6 | 1.6 | 0.00 | 0.03 | 0.03 | 46 | 1005.7 |
| 20260507215511 | 12 | 125 | 1.6 | 1.6 | 0.00 | 0.03 | 0.03 | 48 | 1005.9 |
| 20260507215009 | 12 | 201 | 0.0 | 1.6 | 0.00 | 0.03 | 0.03 | 47 | 1005.9 |
| 20260507214506 | 13 | 175 | 1.6 | 1.6 | 0.00 | 0.03 | 0.03 | 45 | 1005.7 |
| 20260507214001 | 13 | 227 | 4.8 | 4.8 | 0.00 | 0.03 | 0.03 | 43 | 1006.0 |
| 20260507213458 | 12 | 209 | 3.2 | 3.2 | 0.00 | 0.03 | 0.03 | 46 | 1005.7 |
| 20260507212955 | 12 | 177 | 4.8 | 6.4 | 0.00 | 0.03 | 0.03 | 47 | 1006.0 |
| 20260507212451 | 12 | 183 | 3.2 | 3.2 | 0.00 | 0.03 | 0.03 | 47 | 1006.0 |
| 20260507211948 | 12 | 184 | 1.6 | 3.2 | 0.00 | 0.03 | 0.03 | 45 | 1005.8 |
| 20260507211444 | 12 | 132 | 3.2 | 3.2 | 0.00 | 0.03 | 0.03 | 47 | 1006.0 |
| 20260507210941 | 12 | 236 | 3.2 | 3.2 | 0.00 | 0.03 | 0.03 | 46 | 1005.9 |
| 20260507210438 | 12 | 85 | 4.8 | 6.4 | 0.00 | 0.03 | 0.03 | 44 | 1006.0 |
| 20260507205934 | 13 | 142 | 1.6 | 1.6 | 0.00 | 0.03 | 0.03 | 44 | 1005.8 |
| 20260507205432 | 14 | 219 | 4.8 | 4.8 | 0.00 | 0.03 | 0.03 | 42 | 1005.6 |
| 20260507204927 | 14 | 199 | 3.2 | 4.8 | 0.00 | 0.03 | 0.03 | 40 | 1005.7 |
| 20260507204419 | 13 | 223 | 6.4 | 9.7 | 0.00 | 0.03 | 0.03 | 41 | 1005.6 |
| 20260507203916 | 13 | 164 | 1.6 | 3.2 | 0.00 | 0.03 | 0.03 | 45 | 1005.5 |
| 20260507203414 | 14 | 320 | 4.8 | 4.8 | 0.00 | 0.03 | 0.03 | 40 | 1005.7 |
| 20260507202910 | 15 | 209 | 6.4 | 11.3 | 0.00 | 0.03 | 0.03 | 40 | 1005.7 |
| 20260507202401 | 13 | 184 | 3.2 | 4.8 | 0.00 | 0.03 | 0.03 | 44 | 1005.9 |
| 20260507201856 | 12 | 95 | 1.6 | 1.6 | 0.00 | 0.03 | 0.03 | 46 | 1005.6 |
| 20260507201352 | 12 | 32 | 6.4 | 6.4 | 0.00 | 0.03 | 0.03 | 45 | 1006.0 |
| 20260507200849 | 12 | 193 | 1.6 | 1.6 | 0.00 | 0.03 | 0.03 | 45 | 1005.9 |
| 20260507200345 | 12 | 136 | 3.2 | 3.2 | 0.00 | 0.03 | 0.03 | 43 | 1005.9 |
| 20260507195841 | 13 | 231 | 1.6 | 3.2 | 0.00 | 0.03 | 0.03 | 43 | 1005.7 |
| 20260507195338 | 13 | 265 | 4.8 | 9.7 | 0.00 | 0.03 | 0.03 | 45 | 1005.7 |
| 20260507194836 | 14 | 204 | 1.6 | 3.2 | 0.00 | 0.03 | 0.03 | 44 | 1005.8 |
| 20260507194332 | 15 | 170 | 4.8 | 6.4 | 0.00 | 0.03 | 0.03 | 39 | 1006.0 |
| 20260507193828 | 15 | 14 | 4.8 | 6.4 | 0.00 | 0.03 | 0.03 | 39 | 1006.1 |
| 20260507193326 | 15 | 160 | 1.6 | 1.6 | 0.00 | 0.03 | 0.03 | 41 | 1006.2 |
| 20260507192821 | 14 | 219 | 1.6 | 1.6 | 0.00 | 0.03 | 0.03 | 40 | 1006.1 |
| 20260507192318 | 15 | 94 | 3.2 | 3.2 | 0.00 | 0.03 | 0.03 | 41 | 1005.9 |
| 20260507191815 | 13 | 55 | 3.2 | 4.8 | 0.00 | 0.03 | 0.03 | 43 | 1006.0 |
| 20260507191311 | 13 | 269 | 6.4 | 6.4 | 0.00 | 0.03 | 0.03 | 43 | 1006.0 |
| 20260507190808 | 12 | 206 | 0.0 | 0.0 | 0.00 | 0.03 | 0.03 | 47 | 1006.3 |
| 20260507190306 | 12 | 177 | 1.6 | 3.2 | 0.00 | 0.03 | 0.03 | 48 | 1006.4 |
| 20260507185804 | 12 | 244 | 4.8 | 4.8 | 0.00 | 0.03 | 0.03 | 47 | 1006.5 |
| 20260507185255 | 12 | 26 | 3.2 | 4.8 | 0.00 | 0.03 | 0.03 | 46 | 1006.7 |
| 20260507184752 | 12 | 222 | 4.8 | 4.8 | 0.00 | 0.03 | 0.03 | 44 | 1006.9 |
| 20260507184250 | 12 | 201 | 0.0 | 1.6 | 0.00 | 0.03 | 0.03 | 43 | 1006.7 |
| 20260507183747 | 13 | 238 | 3.2 | 4.8 | 0.00 | 0.03 | 0.03 | 44 | 1006.7 |
| 20260507183243 | 14 | 250 | 9.7 | 12.9 | 0.00 | 0.03 | 0.03 | 41 | 1006.6 |
| 20260507182741 | 15 | 205 | 4.8 | 6.4 | 0.00 | 0.03 | 0.03 | 42 | 1007.0 |
| 20260507182236 | 15 | 230 | 8.0 | 11.3 | 0.00 | 0.03 | 0.03 | 40 | 1006.9 |
| 20260507181734 | 12 | 213 | 4.8 | 6.4 | 0.00 | 0.03 | 0.03 | 45 | 1006.8 |
| 20260507181230 | 12 | 80 | 1.6 | 3.2 | 0.00 | 0.03 | 0.03 | 43 | 1006.7 |
| 20260507180726 | 12 | 53 | 1.6 | 3.2 | 0.00 | 0.03 | 0.03 | 46 | 1006.9 |
| 20260507180223 | 13 | 168 | 8.0 | 9.7 | 0.00 | 0.03 | 0.03 | 41 | 1007.2 |
| 20260507175719 | 14 | 228 | 4.8 | 4.8 | 0.00 | 0.03 | 0.03 | 42 | 1007.2 |
| 20260507175216 | 13 | 88 | 1.6 | 1.6 | 0.00 | 0.03 | 0.03 | 45 | 1007.0 |
| 20260507174714 | 14 | 5 | 1.6 | 3.2 | 0.00 | 0.03 | 0.03 | 45 | 1007.0 |
| 20260507174211 | 14 | 302 | 1.6 | 1.6 | 0.00 | 0.03 | 0.03 | 44 | 1006.9 |
| 20260507173709 | 14 | 224 | 3.2 | 4.8 | 0.00 | 0.03 | 0.03 | 41 | 1007.3 |
| 20260507173205 | 13 | 116 | 3.2 | 4.8 | 0.00 | 0.03 | 0.03 | 44 | 1007.2 |
| 20260507172702 | 13 | 128 | 3.2 | 3.2 | 0.00 | 0.03 | 0.03 | 46 | 1007.5 |
| 20260507172159 | 14 | 221 | 3.2 | 6.4 | 0.00 | 0.03 | 0.03 | 41 | 1007.4 |
| 20260507171658 | 12 | 82 | 0.0 | 1.6 | 0.00 | 0.03 | 0.03 | 47 | 1007.6 |
| 20260507171156 | 13 | 239 | 9.7 | 12.9 | 0.00 | 0.03 | 0.03 | 42 | 1007.4 |
| 20260507170653 | 13 | 132 | 1.6 | 3.2 | 0.00 | 0.03 | 0.03 | 44 | 1007.6 |
| 20260507170150 | 13 | 216 | 9.7 | 14.5 | 0.00 | 0.03 | 0.03 | 44 | 1007.7 |
| 20260507165646 | 12 | 215 | 3.2 | 6.4 | 0.00 | 0.03 | 0.03 | 50 | 1007.6 |
| 20260507165142 | 13 | 15 | 3.2 | 4.8 | 0.00 | 0.03 | 0.03 | 46 | 1007.9 |
| 20260507164638 | 13 | 229 | 3.2 | 4.8 | 0.00 | 0.03 | 0.03 | 51 | 1007.8 |
| 20260507164135 | 13 | 148 | 4.8 | 4.8 | 0.00 | 0.03 | 0.03 | 42 | 1007.9 |
| 20260507163627 | 12 | 201 | 3.2 | 4.8 | 0.00 | 0.03 | 0.03 | 49 | 1007.9 |
| 20260507163125 | 13 | 74 | 3.2 | 3.2 | 0.00 | 0.03 | 0.03 | 45 | 1008.1 |
| 20260507162620 | 12 | 115 | 4.8 | 9.7 | 0.00 | 0.03 | 0.03 | 47 | 1008.2 |
| 20260507162117 | 13 | 236 | 8.0 | 11.3 | 0.00 | 0.03 | 0.03 | 45 | 1008.0 |
| 20260507161613 | 13 | 254 | 3.2 | 4.8 | 0.00 | 0.03 | 0.03 | 50 | 1007.9 |
| 20260507161110 | 12 | 196 | 1.6 | 1.6 | 0.00 | 0.03 | 0.03 | 53 | 1008.1 |
| 20260507160606 | 12 | 212 | 4.8 | 6.4 | 0.00 | 0.03 | 0.03 | 48 | 1008.3 |
| 20260507155558 | 13 | 52 | 3.2 | 3.2 | 0.00 | 0.03 | 0.03 | 48 | 1008.4 |
| 20260507155055 | 12 | 116 | 1.6 | 1.6 | 0.00 | 0.03 | 0.03 | 50 | 1008.4 |
| 20260507154552 | 12 | 200 | 1.6 | 1.6 | 0.00 | 0.03 | 0.03 | 45 | 1008.6 |
| 20260507154049 | 11 | 241 | 3.2 | 3.2 | 0.00 | 0.03 | 0.03 | 54 | 1008.5 |
| 20260507153546 | 11 | 280 | 3.2 | 4.8 | 0.00 | 0.03 | 0.03 | 56 | 1008.4 |
| 20260507153042 | 11 | 144 | 0.0 | 1.6 | 0.00 | 0.03 | 0.03 | 51 | 1008.7 |
| 20260507152538 | 12 | 224 | 4.8 | 4.8 | 0.00 | 0.03 | 0.03 | 47 | 1008.8 |
| 20260507152034 | 12 | 64 | 6.4 | 9.7 | 0.00 | 0.03 | 0.03 | 48 | 1008.7 |
| 20260507151530 | 12 | 24 | 6.4 | 12.9 | 0.00 | 0.03 | 0.03 | 47 | 1008.9 |
| 20260507151028 | 11 | 237 | 9.7 | 11.3 | 0.00 | 0.03 | 0.03 | 50 | 1009.0 |
| 20260507150524 | 11 | 197 | 3.2 | 4.8 | 0.00 | 0.03 | 0.03 | 49 | 1008.9 |
| 20260507150016 | 11 | 80 | 1.6 | 1.6 | 0.00 | 0.03 | 0.03 | 50 | 1008.9 |
| 20260507145510 | 12 | 117 | 3.2 | 3.2 | 0.00 | 0.03 | 0.03 | 50 | 1008.9 |
| 20260507145008 | 11 | 135 | 3.2 | 4.8 | 0.00 | 0.03 | 0.03 | 49 | 1008.8 |
| 20260507144505 | 11 | 232 | 6.4 | 6.4 | 0.00 | 0.03 | 0.03 | 56 | 1008.8 |
| 20260507144003 | 11 | 187 | 3.2 | 4.8 | 0.00 | 0.03 | 0.03 | 58 | 1009.0 |
| 20260507143500 | 11 | 215 | 8.0 | 11.3 | 0.00 | 0.03 | 0.03 | 50 | 1008.9 |
| 20260507142956 | 10 | 196 | 3.2 | 4.8 | 0.00 | 0.03 | 0.03 | 53 | 1008.9 |
| 20260507142452 | 10 | 43 | 4.8 | 6.4 | 0.00 | 0.03 | 0.03 | 57 | 1009.0 |
| 20260507141949 | 10 | 161 | 0.0 | 1.6 | 0.00 | 0.03 | 0.03 | 51 | 1009.0 |
| 20260507141445 | 10 | 194 | 1.6 | 3.2 | 0.00 | 0.03 | 0.03 | 51 | 1009.2 |
| 20260507140942 | 11 | 150 | 3.2 | 3.2 | 0.00 | 0.03 | 0.03 | 52 | 1009.0 |
| 20260507140438 | 10 | 150 | 1.6 | 3.2 | 0.00 | 0.03 | 0.03 | 58 | 1009.2 |
| 20260507135936 | 10 | 51 | 3.2 | 3.2 | 0.00 | 0.03 | 0.03 | 55 | 1009.4 |
| 20260507135433 | 8 | 214 | 0.0 | 1.6 | 0.00 | 0.03 | 0.03 | 59 | 1009.3 |
| 20260507134930 | 10 | 245 | 3.2 | 4.8 | 0.00 | 0.03 | 0.03 | 57 | 1009.3 |
| 20260507134427 | 9 | 185 | 3.2 | 3.2 | 0.00 | 0.03 | 0.03 | 63 | 1009.3 |
| 20260507133922 | 9 | 19 | 4.8 | 4.8 | 0.00 | 0.03 | 0.03 | 57 | 1009.3 |
| 20260507133418 | 9 | 143 | 4.8 | 6.4 | 0.00 | 0.03 | 0.03 | 55 | 1009.3 |
| 20260507132912 | 8 | 213 | 3.2 | 3.2 | 0.00 | 0.03 | 0.03 | 58 | 1009.3 |
| 20260507132407 | 8 | 84 | 3.2 | 4.8 | 0.00 | 0.03 | 0.03 | 54 | 1009.6 |
| 20260507131906 | 8 | 233 | 4.8 | 6.4 | 0.00 | 0.03 | 0.03 | 57 | 1009.5 |
| 20260507131401 | 8 | 202 | 3.2 | 4.8 | 0.00 | 0.03 | 0.03 | 58 | 1009.3 |
| 20260507130858 | 8 | 141 | 4.8 | 14.5 | 0.00 | 0.03 | 0.03 | 62 | 1009.1 |
| 20260507130354 | 8 | 74 | 4.8 | 6.4 | 0.00 | 0.03 | 0.03 | 58 | 1009.1 |
| 20260507125854 | 8 | 223 | 4.8 | 4.8 | 0.00 | 0.03 | 0.03 | 60 | 1009.3 |
| 20260507125351 | 8 | 252 | 3.2 | 4.8 | 0.00 | 0.03 | 0.03 | 62 | 1009.0 |
| 20260507124849 | 8 | 50 | 3.2 | 4.8 | 0.00 | 0.03 | 0.03 | 62 | 1009.1 |
| 20260507124344 | 7 | 158 | 1.6 | 1.6 | 0.00 | 0.03 | 0.03 | 63 | 1009.1 |
| 20260507123843 | 7 | 83 | 0.0 | 1.6 | 0.00 | 0.03 | 0.03 | 62 | 1009.0 |
| 20260507123340 | 7 | 86 | 4.8 | 9.7 | 0.00 | 0.03 | 0.03 | 65 | 1009.1 |
| 20260507122836 | 7 | 175 | 1.6 | 1.6 | 0.00 | 0.03 | 0.03 | 70 | 1008.8 |
| 20260507122331 | 7 | 182 | 1.6 | 1.6 | 0.00 | 0.03 | 0.03 | 72 | 1008.8 |
| 20260507121828 | 6 | 200 | 1.6 | 1.6 | 0.00 | 0.03 | 0.03 | 71 | 1008.8 |
| 20260507121324 | 6 | 125 | 1.6 | 3.2 | 0.00 | 0.03 | 0.03 | 69 | 1009.0 |
| 20260507120820 | 7 | 104 | 0.0 | 0.0 | 0.13 | 0.03 | 0.03 | 70 | 1008.9 |
| 20260507120317 | 6 | 241 | 8.0 | 11.3 | 0.13 | 0.03 | 0.03 | 69 | 1009.0 |
| 20260507115813 | 6 | 144 | 0.0 | 1.6 | 0.00 | 0.00 | 0.00 | 72 | 1008.8 |
| 20260507115309 | 6 | 160 | 1.6 | 3.2 | 0.00 | 0.00 | 0.00 | 73 | 1008.9 |
| 20260507114804 | 6 | 174 | 0.0 | 1.6 | 0.00 | 0.00 | 0.00 | 75 | 1008.9 |
| 20260507114302 | 5 | 183 | 1.6 | 3.2 | 0.00 | 0.00 | 0.00 | 77 | 1008.7 |
| 20260507113800 | 5 | 240 | 4.8 | 4.8 | 0.00 | 0.00 | 0.00 | 76 | 1008.7 |
| 20260507113256 | 5 | 170 | 0.0 | 1.6 | 0.00 | 0.00 | 0.00 | 78 | 1008.8 |
| 20260507112754 | 5 | 121 | 1.6 | 1.6 | 0.00 | 0.00 | 0.00 | 79 | 1008.5 |
| 20260507112251 | 5 | 182 | 0.0 | 0.0 | 0.00 | 0.00 | 0.00 | 82 | 1008.6 |
| 20260507111749 | 5 | 121 | 1.6 | 1.6 | 0.00 | 0.00 | 0.00 | 83 | 1008.7 |
| 20260507111245 | 5 | 163 | 0.0 | 1.6 | 0.00 | 0.00 | 0.00 | 86 | 1008.7 |
| 20260507110741 | 5 | 160 | 1.6 | 1.6 | 0.00 | 0.00 | 0.00 | 87 | 1008.6 |
| 20260507110238 | 5 | 125 | 1.6 | 3.2 | 0.00 | 0.00 | 0.00 | 86 | 1008.2 |
| 20260507105734 | 5 | 210 | 4.8 | 6.4 | 0.00 | 0.00 | 0.00 | 88 | 1008.2 |
| 20260507105230 | 5 | 169 | 3.2 | 3.2 | 0.00 | 0.00 | 0.00 | 90 | 1008.4 |
| 20260507104728 | 5 | 175 | 1.6 | 1.6 | 0.00 | 0.00 | 0.00 | 90 | 1008.4 |
| 20260507104225 | 5 | 192 | 3.2 | 3.2 | 0.00 | 0.00 | 0.00 | 90 | 1008.3 |
| 20260507103720 | 5 | 71 | 1.6 | 1.6 | 0.00 | 0.00 | 0.00 | 90 | 1008.0 |
| 20260507103217 | 5 | 155 | 0.0 | 1.6 | 0.00 | 0.00 | 0.00 | 91 | 1007.9 |
| 20260507102713 | 5 | 187 | 1.6 | 1.6 | 0.00 | 0.00 | 0.00 | 92 | 1007.9 |
| 20260507102210 | 5 | 297 | 1.6 | 3.2 | 0.00 | 0.00 | 0.00 | 93 | 1007.9 |
| 20260507101706 | 5 | 173 | 1.6 | 1.6 | 0.00 | 0.00 | 0.00 | 94 | 1007.7 |
| 20260507101201 | 5 | 214 | 1.6 | 3.2 | 0.00 | 0.00 | 0.00 | 94 | 1007.7 |
| 20260507100659 | 5 | 234 | 9.7 | 14.5 | 0.00 | 0.00 | 0.00 | 95 | 1007.7 |
| 20260507100157 | 5 | 201 | 1.6 | 1.6 | 0.00 | 0.00 | 0.00 | 96 | 1007.7 |
| 20260507095655 | 5 | 197 | 3.2 | 3.2 | 0.00 | 0.00 | 0.00 | 97 | 1007.9 |
| 20260507095151 | 5 | 192 | 1.6 | 1.6 | 0.00 | 0.00 | 0.00 | 98 | 1007.8 |
| 20260507094648 | 5 | 193 | 1.6 | 3.2 | 0.00 | 0.00 | 0.00 | 98 | 1007.5 |
| 20260507094144 | 5 | 193 | 3.2 | 3.2 | 0.00 | 0.00 | 0.00 | 98 | 1007.7 |
| 20260507093642 | 5 | 193 | 1.6 | 1.6 | 0.00 | 0.00 | 0.00 | 98 | 1007.6 |
| 20260507093141 | 5 | 193 | 1.6 | 1.6 | 0.00 | 0.00 | 0.00 | 98 | 1007.3 |
| 20260507092637 | 5 | 193 | 1.6 | 1.6 | 0.00 | 0.00 | 0.00 | 98 | 1007.2 |
| 20260507092134 | 5 | 193 | 1.6 | 1.6 | 0.00 | 0.00 | 0.00 | 98 | 1007.2 |
| 20260507091630 | 5 | 188 | 1.6 | 1.6 | 0.00 | 0.00 | 0.00 | 98 | 1007.4 |
| 20260507091126 | 5 | 190 | 3.2 | 4.8 | 0.00 | 0.00 | 0.00 | 98 | 1007.4 |
| 20260507090622 | 5 | 182 | 1.6 | 1.6 | 0.00 | 0.00 | 0.00 | 97 | 1007.2 |
| 20260507090120 | 5 | 182 | 0.0 | 1.6 | 0.00 | 0.00 | 0.00 | 97 | 1007.5 |
| 20260507085616 | 6 | 186 | 3.2 | 3.2 | 0.00 | 0.00 | 0.00 | 97 | 1007.5 |